Pittsburgh, PA

3:33 AM EST on December 11, 2019 (GMT -0500)
Pittsburgh International

Weather History for KPIT - October, 2019

Change the Weather History Date:

Monday, October 7, 2019

  Actual Average Record
Temperature  
Mean Temperature 56 °F 56 °F  
Max Temperature 62 °F 66 °F 88 °F (1900)
Min Temperature 50 °F 46 °F 27 °F (1964)
Degree Days  
Heating Degree Days 9 10  
Month to date heating degree days 32 63  
Since 1 July heating degree days 40 177  
Cooling Degree Days 0 0  
Month to date cooling degree days 37 6  
Year to date cooling degree days 934 734  
Growing Degree Days 6 (Base 50)    
Moisture  
Dew Point 52 °F    
Average Humidity 91    
Maximum Humidity 97    
Minimum Humidity 80    
Precipitation  
Precipitation 1.29 in 0.08 in 1.15 in (1872)
Month to date precipitation 1.94 0.52  
Year to date precipitation 42.03 30.34  
Snow  
Snow 0.00 in 0.00 in T in (1889)
Month to date snowfall 0.0 0.0  
Snow Depth 0.00 in    
Sea Level Pressure  
Sea Level Pressure 30.17 in    
Wind  
Wind Speed 5 mph ()    
Max Wind Speed 15 mph    
Max Gust Speed 20 mph    
Visibility 7.1 miles    
Events Rain    
T = Trace of Precipitation, MM = Missing Value Source: Averaged Metar Reports

Daily Weather History Graph

Daily Weather History Graph

Search for Another Location

Airport or City:

Astronomy

Oct. 07, 2019 Rise Set
Actual Time 7:23 AM EDT 6:53 PM EDT
Civil Twilight 6:55 AM EDT 7:20 PM EDT
Nautical Twilight 6:24 AM EDT 7:52 PM EDT
Astronomical Twilight 5:52 AM EDT 8:24 PM EDT
Moon 4:15 PM EDT (10/7) 1:13 AM EDT (10/7)
Length of Visible Light 12h 24m
Length of Day
11h 30m
Waxing Gibbous, 69% of the Moon is Illuminated
Oct 7
Waxing Gibbous
Oct 13
Full
Oct 21
Last Quarter
Oct 27
New
Nov 4
First Quarter

Hourly Weather History & Observations

Time (EDT) Temp. Dew Point Humidity Pressure Visibility Wind Dir Wind Speed Gust Speed Precip Events Conditions
12:51 AM 62.1 °F 60.1 °F 93% 30.11 in 3.0 mi NNW 11.5 mph - 0.15 in Rain Rain
1:51 AM 61.0 °F 59.0 °F 93% 30.11 in 4.0 mi NW 8.1 mph - 0.22 in Rain Light Rain
2:21 AM 57.9 °F 53.1 °F 84% 30.12 in 4.0 mi North 8.1 mph - 0.04 in Rain Rain
2:51 AM 55.9 °F 52.0 °F 87% 30.11 in 5.0 mi NNW 8.1 mph - 0.16 in Rain Light Rain
3:05 AM 55.0 °F 53.1 °F 93% 30.10 in 2.0 mi NNW 6.9 mph - 0.14 in Rain Rain
3:32 AM 55.0 °F 53.1 °F 93% 30.10 in 4.0 mi NE 5.8 mph - 0.26 in Rain Rain
3:51 AM 55.0 °F 53.1 °F 93% 30.12 in 4.0 mi North 6.9 mph - 0.31 in Rain Light Rain
4:51 AM 55.0 °F 53.1 °F 93% 30.12 in 5.0 mi NNE 6.9 mph - 0.09 in Rain Light Rain
5:51 AM 55.0 °F 53.1 °F 93% 30.15 in 7.0 mi NNW 5.8 mph - 0.06 in Rain Light Rain
6:09 AM 55.0 °F 53.1 °F 93% 30.15 in 6.0 mi NNW 8.1 mph - 0.02 in Rain Light Rain
6:51 AM 54.0 °F 53.1 °F 97% 30.19 in 6.0 mi NW 5.8 mph - 0.07 in Rain Light Rain
7:23 AM 54.0 °F 53.1 °F 97% 30.16 in 6.0 mi NNW 3.5 mph - 0.03 in Rain Light Rain
7:51 AM 55.0 °F 53.1 °F 93% 30.17 in 6.0 mi North 4.6 mph - 0.05 in Rain Light Rain
8:40 AM 55.0 °F 53.1 °F 93% 30.16 in 7.0 mi NNW 5.8 mph - 0.01 in Rain Light Rain
8:51 AM 55.0 °F 53.1 °F 93% 30.18 in 7.0 mi North 5.8 mph - 0.01 in Rain Light Rain
9:51 AM 55.0 °F 53.1 °F 93% 30.18 in 10.0 mi North 3.5 mph - 0.00 in Rain Light Rain
10:37 AM 55.9 °F 53.1 °F 90% 30.17 in 7.0 mi Calm Calm - 0.02 in Rain Light Rain
10:51 AM 55.9 °F 52.0 °F 87% 30.18 in 10.0 mi Calm Calm - 0.02 in Rain Light Rain
11:51 AM 55.0 °F 51.1 °F 86% 30.20 in 6.0 mi NNW 4.6 mph - 0.05 in Rain Light Rain
12:51 PM 55.9 °F 52.0 °F 87% 30.21 in 7.0 mi WNW 4.6 mph - 0.02 in Rain Light Rain
1:51 PM 54.0 °F 48.0 °F 80% 30.20 in 7.0 mi Calm Calm - 0.04 in Rain Light Rain
2:51 PM 54.0 °F 51.1 °F 90% 30.19 in 9.0 mi SSW 3.5 mph - 0.03 in Rain Light Rain
3:51 PM 54.0 °F 51.1 °F 90% 30.19 in 10.0 mi Calm Calm - 0.01 in   Overcast
4:51 PM 54.0 °F 51.1 °F 90% 30.17 in 10.0 mi South 3.5 mph - N/A   Overcast
5:51 PM 54.0 °F 52.0 °F 93% 30.20 in 10.0 mi West 6.9 mph - N/A   Overcast
6:51 PM 54.0 °F 48.9 °F 83% 30.19 in 10.0 mi Calm Calm - N/A   Overcast
7:51 PM 53.1 °F 51.1 °F 93% 30.21 in 10.0 mi South 3.5 mph - N/A   Overcast
8:51 PM 53.1 °F 51.1 °F 93% 30.22 in 10.0 mi Calm Calm - N/A   Overcast
9:51 PM 52.0 °F 50.0 °F 93% 30.25 in 10.0 mi WSW 3.5 mph - N/A   Overcast
10:51 PM 52.0 °F 50.0 °F 93% 30.26 in 10.0 mi Calm Calm - N/A   Overcast
11:51 PM 51.1 °F 50.0 °F 96% 30.27 in 8.0 mi Calm Calm - N/A   Overcast